Wind_Gust
26 25 24 23 22 22 21 21 20 20 19 18 17 17 17 17 17 16 16 15 15 16 15 15 14 14 14 15 14 13 12 20 20 22 21 16 8 6 9 10 9 10 10 18 19 19 16 16 17 15 22 23 23 23 19 16 28 27 29 35 28 30 28 23 25 24 27 24 24 20 23 21 22 24 28 25 24 27 27 29 30 29 28 27 28 23 24 22
26 25 24 24 23 22 22 21 21 20 19 18 18 18 17 18 17 17 17 16 15 16 16 14 14 13 14 12 14 10 15 19 22 21 21 9 8 6 7 9 9 10 12 19 20 18 16 15 15 18 23 25 15 19 16 27 28 35 33 36 28 28 30 30 31 26 25 25 25 25 20 21 24 20 26 26 24 25 26 28 27 28 27 25 24 21 21 20
27 26 26 25 24 22 22 21 21 20 19 19 19 19 18 18 17 17 17 17 16 15 16 16 14 13 13 12 10 9 16 21 24 22 18 7 8 7 7 7 9 6 17 20 21 22 21 18 14 19 20 22 19 16 17 34 28 35 35 31 29 31 27 31 27 22 26 33 35 29 23 20 20 23 28 27 25 28 24 28 25 26 25 26 25 21 19 19
27 26 25 24 24 23 22 22 21 20 20 19 19 19 19 18 17 17 16 17 17 17 15 15 14 13 11 12 5 16 18 25 25 21 15 10 8 8 8 8 9 13 19 21 22 24 15 17 15 20 21 18 16 11 22 29 29 38 32 28 31 30 24 27 21 24 29 36 30 24 24 21 22 23 31 26 26 23 26 26 26 27 28 27 23 20 20 19
27 26 25 24 24 23 22 21 22 21 20 19 19 19 19 19 18 17 17 16 17 17 16 15 13 11 10 9 12 16 17 19 22 19 16 11 10 7 9 9 10 18 19 21 23 17 15 16 15 16 21 18 16 13 30 29 34 31 26 27 30 27 24 30 26 22 26 26 19 22 21 21 25 24 22 20 23 22 26 26 28 29 26 28 24 22 21 18
27 26 24 25 24 23 23 22 22 21 20 19 19 19 19 19 18 17 17 17 17 17 16 14 13 11 8 6 15 17 22 27 14 20 11 10 10 8 8 9 10 19 20 21 19 15 16 16 18 18 18 17 16 18 27 29 34 28 29 26 28 28 26 29 24 22 21 26 21 20 23 28 26 22 22 23 24 23 29 31 29 28 26 27 24 24 20 18
27 26 25 25 25 24 23 23 22 22 21 20 19 19 19 18 17 17 17 17 17 16 16 14 12 13 9 6 17 19 28 29 13 17 15 11 10 10 9 10 11 17 18 20 20 18 16 17 19 18 12 18 14 24 30 31 32 31 38 33 30 30 23 22 22 17 28 32 27 21 26 24 26 23 24 24 25 24 29 28 29 28 26 29 26 21 20 19
27 26 26 25 24 23 23 23 22 22 21 20 19 19 18 17 17 17 18 18 17 16 15 13 12 12 9 16 19 22 25 28 18 16 11 10 14 15 13 18 18 17 18 18 19 19 13 18 18 12 17 19 19 22 31 33 37 37 37 25 24 20 21 19 19 24 28 22 17 18 23 27 23 26 23 22 25 24 26 26 28 27 28 26 27 25 21 20
27 27 26 25 23 23 22 23 23 22 21 20 19 19 18 17 18 18 19 18 18 17 15 13 12 8 8 15 21 26 25 18 16 15 19 17 15 16 18 17 18 18 19 20 14 18 16 13 17 16 18 20 15 23 29 29 33 35 25 22 25 20 19 18 17 17 15 17 17 16 24 22 28 34 25 20 23 22 25 25 25 25 25 25 23 23 21 20
26 26 25 25 24 23 22 23 22 22 21 21 19 19 19 19 18 18 18 19 19 19 16 13 12 9 13 20 23 25 17 14 14 17 14 12 13 14 16 21 14 20 20 17 11 16 18 21 17 16 18 18 15 29 28 26 24 25 23 26 20 19 18 16 17 16 14 16 21 18 23 22 22 18 24 21 25 26 23 24 23 25 24 24 22 24 22 22
26 25 25 25 24 24 23 23 22 22 22 20 20 18 18 19 19 18 18 19 19 18 16 13 10 11 18 24 18 26 13 20 13 14 11 12 13 14 17 15 12 17 19 12 18 12 14 12 14 16 18 23 18 21 20 32 25 26 29 28 22 19 18 16 16 16 16 17 16 21 24 23 29 21 25 23 27 26 22 23 24 21 24 22 22 22 20 20
27 26 26 26 25 23 23 23 22 22 21 20 19 18 16 18 19 18 17 17 19 18 15 13 11 18 23 24 27 23 13 17 14 16 13 13 14 12 10 11 12 15 16 24 15 10 11 17 15 19 22 20 25 24 24 21 20 23 24 26 21 20 22 15 17 15 11 19 19 24 30 30 21 22 20 24 23 23 23 22 21 20 20 20 21 21 20 19
27 26 26 27 25 23 23 23 22 22 20 19 19 18 18 16 18 18 16 16 14 13 12 10 13 19 22 24 22 14 11 15 14 12 15 15 13 10 9 11 12 11 16 19 20 11 10 13 15 19 24 17 20 22 21 16 21 21 31 26 29 28 19 21 15 14 13 21 18 24 20 25 22 22 21 23 24 23 22 22 20 20 19 20 19 19 19 18
27 27 27 27 25 24 23 22 22 21 19 20 19 19 18 17 16 16 15 14 19 16 14 11 17 18 21 28 18 13 10 11 17 14 13 15 16 14 12 10 10 13 9 17 11 11 13 12 20 20 14 18 23 27 23 23 19 23 26 28 28 26 26 29 29 15 15 18 13 17 20 24 20 20 22 21 23 23 23 22 21 20 19 19 18 19 18 18
28 27 27 26 24 24 24 24 21 20 21 21 20 19 19 17 13 13 13 15 14 13 13 10 18 18 20 22 14 15 12 19 15 16 15 23 15 20 16 14 13 13 11 14 15 12 13 16 21 18 21 21 27 23 23 21 27 23 24 22 25 20 20 27 31 22 17 22 18 16 17 22 18 21 21 21 21 23 23 22 21 21 21 20 20 19 20 19
29 28 27 27 24 25 24 23 22 21 22 22 21 22 21 16 14 11 11 12 19 18 20 17 22 24 18 21 21 13 23 16 19 17 14 20 19 20 14 13 14 15 15 15 13 14 16 18 18 21 25 21 22 23 26 24 26 28 26 16 26 23 24 25 21 23 14 16 17 20 22 27 19 20 21 21 23 20 22 22 22 20 20 22 20 19 19 20
29 28 28 26 25 25 25 23 23 22 21 22 23 21 15 13 11 12 15 10 16 15 16 25 25 26 22 20 20 19 19 18 13 17 13 13 17 11 18 15 18 18 18 19 16 16 17 23 19 19 14 20 17 25 20 27 29 31 23 22 27 27 25 20 21 25 15 16 19 19 24 19 23 24 20 20 21 21 19 23 20 21 22 20 21 20 20 20
28 28 27 26 26 26 26 27 24 23 21 25 19 17 20 6 8 12 14 12 20 20 19 27 22 18 30 19 17 20 15 16 13 15 15 17 13 12 18 15 12 16 18 22 16 21 18 23 22 17 18 20 16 17 17 19 26 22 19 16 25 31 24 20 21 22 27 19 19 21 22 24 25 25 23 20 19 20 19 20 20 23 22 20 25 21 20 21
28 27 27 27 26 27 28 28 27 24 22 26 26 11 15 13 17 21 23 23 22 20 22 23 21 20 24 17 14 18 14 10 14 22 20 18 17 21 12 16 18 18 19 19 21 20 19 19 17 17 15 16 15 18 19 17 23 24 18 20 18 19 18 19 18 28 26 23 22 20 24 25 23 25 21 22 20 21 18 20 20 21 20 23 19 21 21 21
28 27 27 27 27 27 29 29 30 27 20 22 20 14 14 16 20 19 26 25 25 21 20 16 18 17 16 15 19 16 13 16 20 18 13 13 16 17 17 18 14 19 16 19 17 16 14 14 18 13 21 18 18 17 19 18 18 18 16 17 19 22 20 16 28 26 25 23 21 27 23 25 31 24 24 22 20 20 21 21 26 27 24 21 20 21 23 17
27 28 27 27 27 26 28 29 29 29 23 20 21 21 21 26 19 23 23 24 17 21 19 18 19 21 19 13 16 18 15 23 18 20 20 13 16 19 20 21 17 16 15 14 15 19 17 17 18 15 14 15 18 16 14 18 16 17 18 16 24 26 23 26 18 21 25 21 20 26 23 20 29 29 23 24 20 21 23 21 21 25 25 23 19 22 24 19
28 27 28 27 27 26 27 28 30 27 30 20 21 22 20 18 14 17 17 22 16 14 14 15 12 19 13 15 14 21 20 21 21 22 19 22 15 24 20 23 13 19 14 15 17 21 23 21 18 14 15 16 11 14 14 17 20 18 23 23 21 29 19 27 20 19 18 19 20 21 21 25 29 33 31 26 25 22 24 25 21 23 25 28 23 20 20 20
27 28 27 28 27 26 27 28 30 24 23 20 20 17 19 15 15 15 18 28 22 11 16 18 19 18 17 13 20 25 15 23 21 23 27 26 15 20 16 16 13 17 15 13 19 26 26 24 15 12 12 15 17 13 15 18 16 25 27 21 22 20 24 19 28 24 20 22 19 18 21 26 31 25 24 23 25 22 20 24 21 22 25 26 25 22 21 23
27 27 28 27 28 28 27 27 28 17 15 17 19 18 13 15 16 18 17 19 23 17 16 16 14 18 18 21 18 19 20 24 20 20 21 30 18 18 20 15 14 14 14 11 14 19 22 20 14 15 13 14 19 16 17 18 22 29 28 29 20 18 20 21 20 23 17 19 22 24 23 26 23 24 28 33 31 26 28 26 25 23 22 22 20 22 22 23
25 27 27 28 28 27 28 27 13 13 11 12 17 14 15 14 14 15 19 25 22 24 12 20 11 17 17 17 17 27 22 21 21 17 18 22 15 21 17 12 16 17 14 12 16 18 18 16 13 19 11 14 15 15 21 20 19 24 27 26 18 16 17 15 13 16 19 19 28 25 27 25 23 21 26 32 32 25 26 24 23 22 22 23 23 21 22 22
26 26 27 26 28 30 25 12 11 11 14 16 15 15 13 15 15 15 19 24 21 19 26 17 18 14 19 14 18 26 19 25 15 19 16 17 14 21 17 17 21 18 14 14 19 21 17 12 13 20 13 13 12 16 16 19 19 18 20 15 18 18 17 16 18 16 19 21 20 20 24 28 19 23 25 22 26 23 21 24 23 24 23 23 23 23 22 22
26 26 26 25 24 27 16 9 22 20 18 18 13 13 14 14 13 13 21 20 18 18 20 21 21 20 20 13 22 19 22 22 14 17 18 18 16 18 20 19 15 14 12 14 19 19 21 17 16 13 13 13 13 14 18 20 21 18 13 17 17 19 18 19 18 18 23 20 19 23 26 28 27 22 18 19 20 19 22 22 22 23 22 22 21 21 19 22
27 27 26 24 22 17 14 20 22 17 18 13 14 14 15 14 13 13 18 12 17 13 20 19 20 14 15 12 16 22 22 11 19 19 14 17 19 13 23 19 18 18 12 15 13 19 17 15 16 17 13 13 18 17 16 16 22 19 18 18 20 19 20 20 20 21 23 26 21 22 22 26 24 18 18 21 23 24 24 20 22 21 21 22 21 20 18 19
25 27 25 25 27 19 16 15 18 18 16 16 15 16 16 13 13 20 21 16 15 15 16 12 16 17 16 16 19 14 17 21 17 16 12 15 20 22 20 15 13 12 10 18 18 16 17 15 16 15 18 18 15 16 14 16 22 18 19 16 18 18 19 20 22 23 20 22 19 21 22 25 24 19 18 25 28 19 21 23 22 23 21 18 19 18 19 17
24 23 24 23 24 13 13 14 15 13 14 15 17 17 13 12 16 19 14 6 11 17 16 17 15 14 13 15 19 14 16 17 13 13 17 16 14 18 18 15 18 15 17 18 19 18 16 13 12 19 17 16 16 14 12 14 15 16 17 20 20 21 18 17 19 25 20 17 21 24 21 19 25 19 19 16 18 21 18 16 17 26 22 19 16 15 17 17
24 22 20 18 15 17 16 16 15 17 16 16 18 17 15 17 20 22 11 16 18 20 17 12 13 16 19 15 20 16 17 13 15 17 21 19 19 13 14 19 16 17 15 18 18 16 15 14 15 20 12 18 12 23 16 12 12 15 18 18 19 18 19 20 19 21 16 15 17 22 18 13 23 16 19 18 15 15 15 18 15 23 30 19 18 19 20 20
25 22 18 16 16 18 15 17 18 16 17 17 15 16 16 17 22 17 10 16 20 14 15 17 11 19 12 14 14 16 20 18 15 20 21 17 16 15 19 18 11 11 16 11 18 14 15 15 14 15 11 18 20 20 14 15 15 17 16 15 16 18 16 17 17 12 13 18 15 15 15 20 19 18 18 16 16 16 12 16 19 29 29 17 21 21 21 25
26 21 22 16 11 14 14 15 15 14 15 14 15 16 19 17 9 13 16 15 12 14 18 15 15 11 16 14 16 12 14 17 12 14 13 14 16 18 15 18 14 16 19 14 13 15 17 15 13 12 11 19 20 22 21 17 20 19 17 16 16 17 14 14 19 13 14 12 16 16 17 23 21 20 19 16 15 15 13 12 13 14 15 13 18 21 22 21
25 19 16 11 16 16 16 14 12 15 14 11 16 19 17 11 12 9 16 14 16 13 12 13 13 11 13 18 18 15 13 16 16 16 13 12 12 14 15 16 17 16 17 11 15 16 7 22 18 20 17 17 16 18 19 20 20 20 13 18 16 16 17 12 16 17 18 17 22 17 19 19 20 17 17 16 16 12 16 17 18 17 15 12 13 14 18 16
29 19 15 13 13 17 13 13 9 10 13 15 17 19 12 13 16 12 15 15 16 13 12 13 16 12 15 13 14 9 19 16 12 14 12 13 14 12 14 16 17 16 16 20 21 17 12 18 17 15 13 13 16 15 15 16 19 16 19 17 12 16 14 17 19 18 18 20 17 15 17 15 19 18 16 12 15 18 23 26 30 25 20 17 20 20 18 19
19 12 13 13 14 10 11 11 9 11 14 17 20 14 16 12 13 14 17 18 16 13 15 15 13 18 14 13 12 10 12 22 14 15 15 13 14 16 12 15 19 17 20 17 15 15 16 16 12 15 8 14 14 15 14 18 19 20 22 16 18 15 18 13 13 13 14 17 11 9 14 16 21 23 16 16 16 20 21 26 28 24 22 22 28 16 15 18
14 9 13 14 15 11 9 10 10 12 15 19 20 17 18 16 12 15 13 12 16 12 14 19 17 16 13 14 12 12 11 13 13 17 16 12 17 12 14 15 14 14 17 21 15 15 19 18 13 12 13 14 10 13 12 13 17 22 18 18 16 12 15 13 15 10 12 16 14 14 16 18 18 12 17 16 14 16 20 25 26 14 15 24 25 20 16 18
17 14 14 16 15 12 10 9 10 13 18 20 17 12 15 22 17 15 16 12 14 13 15 17 17 12 10 14 15 10 14 18 18 14 12 12 14 13 10 13 14 16 14 12 18 13 17 17 17 11 13 13 12 13 15 14 14 20 19 13 21 11 11 12 16 11 14 12 17 14 14 17 17 15 17 17 17 17 15 15 17 15 16 20 23 15 20 20
14 16 18 15 13 11 10 9 12 16 19 21 20 19 16 16 15 14 11 12 10 10 18 11 16 12 15 12 14 10 10 20 14 11 14 16 16 14 16 14 12 11 9 13 18 12 12 17 18 12 12 14 12 16 15 14 14 11 12 14 14 18 15 15 14 17 19 15 14 15 20 13 18 18 14 15 15 14 15 15 16 18 16 18 18 19 18 15
16 17 14 12 12 9 12 11 15 18 20 19 16 19 19 13 14 13 12 13 15 16 11 15 12 13 13 14 13 14 13 15 15 17 16 16 14 12 14 9 11 12 12 11 14 11 15 12 11 18 11 15 16 19 17 18 18 18 16 14 15 16 13 19 16 18 19 16 15 16 16 18 17 16 15 16 15 14 14 14 14 15 16 15 16 15 14 14
16 20 12 9 12 10 11 14 19 21 23 21 17 17 14 16 17 14 12 11 17 13 16 11 11 14 10 11 16 10 9 12 11 12 12 15 14 14 13 13 9 11 14 12 14 16 12 13 13 17 21 17 19 13 14 14 14 16 18 16 17 18 17 13 12 14 18 19 14 16 17 17 17 17 17 16 14 16 16 15 15 16 18 18 17 15 16 17
15 19 15 9 9 10 15 18 23 20 24 17 17 15 17 11 15 15 15 14 16 15 13 14 12 12 10 11 14 10 12 12 11 14 11 19 16 17 19 11 9 11 19 17 19 17 16 18 17 15 18 18 13 14 11 11 10 13 17 15 15 15 15 14 16 15 20 16 16 16 15 13 17 16 14 14 13 16 15 16 18 18 18 18 18 17 15 12
20 14 14 16 12 12 15 22 18 20 20 19 15 12 15 17 18 17 18 16 17 13 13 14 12 11 9 11 10 11 10 15 13 13 13 11 16 17 15 10 10 11 17 19 13 19 6 18 15 13 13 13 13 13 9 9 10 14 13 11 14 16 15 15 17 19 19 19 17 16 14 17 14 13 13 12 11 13 15 15 17 19 19 18 16 14 14 11
20 16 15 13 11 12 18 17 15 16 19 13 14 16 13 12 16 17 19 16 18 16 15 13 11 10 11 10 9 11 10 11 10 12 13 11 16 13 14 11 10 14 15 20 16 16 13 11 18 20 16 22 20 16 15 10 17 13 14 15 11 12 10 14 17 14 16 12 14 15 16 13 15 11 16 15 17 16 17 16 14 17 14 14 14 13 13 10
23 19 16 15 15 15 23 21 20 17 16 17 18 17 18 15 14 16 14 16 14 13 11 13 9 14 12 11 8 9 10 11 11 11 16 11 16 13 13 10 11 13 18 16 11 14 15 13 15 13 13 12 12 9 10 10 12 14 10 9 8 9 10 11 14 13 17 14 14 16 18 17 18 15 17 16 17 18 16 14 14 15 14 16 13 13 12 13
14 14 17 20 20 19 24 21 20 21 18 17 11 18 18 16 15 14 14 14 10 10 14 15 12 11 12 12 11 11 13 11 12 12 16 13 15 16 12 12 12 18 14 12 14 13 14 11 13 13 15 15 16 14 11 14 8 9 10 10 11 9 10 13 15 18 15 17 20 16 18 21 19 19 17 17 15 15 16 14 15 16 15 14 12 12 12 14
19 18 9 14 21 20 20 20 21 19 20 18 16 18 17 16 15 16 14 17 16 16 15 12 15 15 13 12 11 11 13 13 13 12 12 12 12 16 13 12 14 16 12 11 12 15 13 14 11 11 11 13 12 11 10 10 10 11 10 11 12 12 11 8 13 17 20 16 19 20 22 20 21 20 18 16 14 14 15 16 16 16 16 15 13 12 12 15
17 12 13 13 13 12 19 18 21 18 21 19 17 17 18 17 16 14 16 18 15 16 18 14 16 16 16 15 13 11 12 12 12 9 11 12 15 14 17 16 15 16 15 16 13 15 17 13 10 10 11 9 8 10 8 10 10 11 13 12 8 13 13 6 7 18 12 14 22 25 24 24 23 22 18 15 15 15 17 18 17 16 16 15 13 14 16 17
21 22 17 13 15 15 15 17 19 20 21 22 18 16 17 18 18 16 13 16 16 15 18 8 15 18 16 15 14 14 13 12 9 10 13 12 13 15 15 14 14 18 17 13 11 10 17 14 12 11 12 10 10 10 10 12 10 12 13 13 12 12 10 12 17 18 17 14 20 23 22 24 24 19 16 14 13 15 17 16 16 16 16 15 15 14 16 16
17 19 15 24 19 21 17 14 15 16 20 17 18 17 22 19 18 16 15 13 13 15 16 16 15 17 15 15 15 15 13 11 9 9 13 11 12 14 12 13 15 17 16 14 11 11 15 10 10 13 17 17 16 13 11 12 12 15 11 10 10 10 11 9 8 15 14 11 19 19 20 24 17 15 13 14 14 15 16 16 17 15 14 14 16 16 17 18
16 13 14 20 22 20 19 18 18 19 20 19 23 18 19 18 18 16 14 13 13 15 15 16 15 15 16 15 15 15 7 10 10 9 10 15 14 15 15 12 12 12 15 13 15 11 14 9 12 13 13 17 16 15 12 12 15 18 14 12 6 7 5 7 9 11 7 10 10 14 19 24 15 16 15 15 17 19 17 15 14 13 14 15 15 16 17 16
18 12 14 17 20 17 26 15 18 19 21 21 23 19 21 19 17 16 15 14 13 13 12 15 13 15 13 13 16 14 10 10 8 9 11 14 17 13 15 12 12 13 14 16 11 17 17 15 11 13 14 17 15 12 12 15 16 16 16 18 19 16 14 12 15 14 16 11 7 14 16 20 20 18 17 16 17 17 16 15 13 12 13 16 17 17 15 14
Wind_Speed
19 18 18 18 18 18 17 17 16 16 15 14 14 13 12 12 12 12 12 12 12 12 11 11 11 11 12 12 11 11 10 8 8 9 11 1 2 2 3 1 2 2 4 7 8 11 7 8 8 8 9 8 9 9 5 4 7 11 7 5 4 4 6 4 2 5 11 6 4 3 5 11 10 10 13 12 14 13 13 13 12 14 13 13 11 9 8 8
18 18 18 18 18 18 18 17 16 16 15 14 14 14 13 13 13 13 12 12 12 12 12 10 11 11 11 10 11 8 9 7 9 11 2 3 2 4 2 1 4 5 4 7 9 10 8 8 8 8 8 8 8 2 4 7 7 10 7 6 3 3 3 2 7 7 7 5 3 3 6 5 9 9 10 12 12 12 13 12 12 13 11 8 8 7 9 8
18 18 18 19 19 18 17 17 17 16 16 15 14 13 13 13 13 12 13 13 12 12 12 11 10 10 10 9 8 8 6 7 9 5 4 5 4 0 2 3 4 2 5 10 10 13 11 10 6 6 8 8 6 4 5 10 11 7 9 5 3 9 7 4 9 11 9 6 6 5 5 5 6 7 5 10 14 12 12 11 10 12 11 7 6 4 5 6
18 18 19 19 19 18 17 17 17 16 16 15 13 12 12 13 13 13 13 13 12 11 11 11 10 9 9 9 4 6 7 10 3 7 5 6 3 1 2 2 5 5 8 11 12 13 8 8 5 6 8 8 2 2 10 10 9 8 7 5 5 5 6 3 4 13 10 7 7 7 7 6 7 8 7 8 10 10 10 7 12 13 12 9 6 7 6 5
18 18 18 18 18 18 18 17 17 17 16 15 14 13 13 12 14 14 14 13 12 10 10 10 9 8 8 6 9 5 5 7 8 5 7 8 5 4 4 5 4 7 10 11 14 8 4 8 7 4 6 5 6 3 15 11 10 9 8 10 10 5 5 7 9 10 12 14 10 6 6 11 9 6 9 13 4 9 9 11 11 13 13 11 8 6 6 4
18 17 18 18 18 18 18 18 17 17 16 16 15 14 12 12 13 14 14 13 10 9 10 10 9 7 6 3 4 5 4 6 3 5 9 6 7 5 5 5 5 6 10 11 10 8 7 7 7 8 2 3 3 3 14 15 11 7 11 12 12 8 8 8 9 11 7 4 7 11 9 4 6 10 10 8 10 11 14 12 14 14 13 11 9 7 6 6
18 19 19 19 18 18 18 18 18 18 16 16 15 15 13 11 12 14 14 11 9 7 8 9 9 9 4 1 7 5 8 11 3 5 8 8 7 6 6 6 5 7 8 11 11 8 7 8 6 7 2 4 8 9 19 16 18 7 8 11 15 19 12 13 10 10 8 4 5 9 16 10 6 11 9 6 4 8 18 16 15 16 14 12 10 7 8 9
18 18 18 18 18 18 19 18 18 17 17 15 15 15 14 12 12 14 14 9 9 7 8 10 9 8 5 6 5 6 2 9 9 6 7 8 7 8 5 7 9 9 10 10 11 11 2 8 9 2 1 2 7 12 13 12 8 7 6 6 6 2 5 7 5 16 17 12 7 5 14 14 7 12 13 3 6 10 17 15 15 14 14 13 12 12 10 9
18 18 19 18 18 18 18 18 18 17 16 15 14 15 15 14 13 14 14 8 7 9 8 7 7 5 2 4 8 4 9 9 8 7 9 7 7 9 8 6 10 10 10 11 8 8 9 5 7 5 3 5 6 16 17 10 5 8 8 5 2 7 5 5 9 6 8 6 9 8 15 12 19 21 12 10 6 13 13 12 15 14 13 14 14 13 12 10
18 19 17 17 17 17 17 18 18 17 16 15 15 15 16 16 15 15 13 9 6 8 7 5 6 3 4 4 11 2 2 8 6 8 8 6 6 6 9 10 7 12 10 10 3 8 7 9 8 6 3 4 4 17 15 9 7 11 8 9 6 8 7 6 6 6 5 6 14 7 14 11 10 9 7 4 4 8 12 13 11 15 8 13 13 13 13 12
18 18 17 17 18 17 18 18 18 16 16 15 15 14 15 16 16 15 14 12 5 6 5 5 1 5 7 6 5 10 2 12 5 3 4 3 3 7 8 8 4 8 11 3 10 2 6 5 8 4 1 4 4 11 2 12 14 12 7 6 11 7 5 2 4 4 2 6 10 13 14 8 11 7 9 10 11 6 11 13 13 12 15 12 12 13 12 11
17 18 17 17 17 17 18 18 17 16 17 15 14 15 14 15 16 14 14 14 3 4 5 6 8 4 7 11 5 6 6 8 6 8 4 4 6 4 5 4 2 7 9 13 5 4 3 10 8 3 4 6 6 14 8 5 6 11 13 3 9 12 1 2 4 2 2 7 12 15 11 8 7 9 8 8 11 11 13 12 13 12 11 12 12 11 10 10
18 18 18 18 18 18 17 17 17 17 16 15 16 15 15 13 15 14 12 13 6 5 6 8 9 5 6 4 7 1 2 5 6 5 8 6 4 2 3 5 4 5 8 9 12 5 2 6 7 7 10 5 4 3 8 4 11 10 17 2 9 12 6 12 8 4 4 7 12 13 6 1 7 8 8 6 5 6 8 2 7 8 9 10 9 8 9 10
19 19 19 19 19 17 17 17 17 17 15 16 16 16 15 14 13 13 12 10 15 4 7 10 6 7 8 8 4 5 4 2 8 7 7 7 9 7 3 0 3 6 1 10 4 4 7 3 10 8 1 4 4 3 2 9 7 8 11 10 4 7 7 13 13 5 4 6 2 7 6 5 5 7 6 6 6 5 2 5 5 5 6 9 9 9 8 9
19 19 19 19 19 18 17 17 16 16 17 17 17 16 16 15 11 11 10 13 12 3 5 6 7 4 4 8 5 5 10 10 4 4 2 13 5 5 6 5 2 3 4 8 2 3 3 7 6 5 2 10 3 3 7 7 11 9 7 2 2 1 6 13 15 14 6 10 5 2 5 6 7 6 4 5 6 4 4 2 3 4 4 5 7 8 9 7
20 20 20 20 19 20 19 16 16 17 18 18 18 19 17 13 12 9 8 10 16 14 8 8 8 8 2 6 7 6 8 5 7 8 7 12 11 6 6 6 2 5 9 6 3 0 6 8 4 9 3 5 5 8 4 6 6 6 2 5 3 6 8 8 13 15 6 6 5 6 5 7 6 6 6 3 4 2 3 2 2 2 1 2 4 5 6 7
21 21 20 19 19 19 19 18 18 17 17 18 19 18 12 11 9 10 12 9 7 5 3 7 12 11 1 5 3 8 3 9 3 9 4 3 9 2 9 6 5 3 2 3 4 7 4 11 6 5 4 7 4 4 3 6 3 2 5 5 8 5 6 5 3 13 8 3 6 7 7 7 7 9 7 4 5 6 2 4 3 2 3 2 3 4 6 7
21 21 21 20 20 19 20 20 17 17 17 21 16 15 12 5 5 11 10 5 6 7 7 10 8 9 7 7 3 10 2 7 3 4 7 6 5 4 10 7 3 6 2 6 1 9 4 6 1 6 1 5 3 6 3 5 4 5 7 4 8 6 2 5 3 2 7 7 6 12 12 11 10 8 8 4 7 6 5 4 3 4 2 5 3 6 6 7
20 21 21 20 20 20 21 21 21 18 18 20 21 4 7 5 6 6 7 5 6 6 5 3 2 4 9 7 4 10 5 1 6 8 6 7 8 11 1 6 8 5 5 4 8 11 4 4 2 7 4 5 3 7 6 5 10 13 10 7 3 5 7 3 2 4 4 4 6 12 6 13 11 10 9 8 6 6 6 4 1 1 3 3 6 3 4 5
21 21 21 21 20 21 22 22 20 18 15 15 9 4 5 4 5 4 11 13 4 10 9 7 8 7 4 5 8 5 5 8 7 6 1 5 5 4 5 4 5 8 1 5 2 6 5 4 7 3 8 9 11 9 11 9 10 10 8 7 9 10 10 3 9 6 5 8 2 13 5 14 13 12 13 10 9 10 9 8 5 5 4 3 5 4 10 8
20 22 21 22 21 21 22 24 23 22 13 6 6 7 7 11 8 6 10 7 7 12 9 8 10 11 8 3 2 6 5 9 6 8 11 4 9 7 2 5 2 3 4 3 5 7 7 4 5 3 4 8 9 9 7 10 9 8 9 9 7 6 2 6 6 3 9 10 7 4 1 8 13 10 10 8 8 8 9 10 9 8 1 2 7 0 1 9
21 21 22 21 22 21 22 23 25 21 22 6 6 2 9 9 5 6 6 2 3 4 6 6 4 9 6 7 6 12 9 5 6 4 9 5 4 5 10 9 2 4 4 4 1 6 9 8 7 7 8 9 5 4 7 7 10 8 8 9 7 5 5 4 11 5 7 6 4 4 2 11 12 12 10 14 13 12 10 11 9 8 6 3 6 3 9 3
19 21 20 22 21 21 22 23 24 17 9 8 7 8 6 7 8 6 8 7 3 3 7 10 8 4 6 5 5 12 7 9 4 4 6 7 7 9 3 2 1 4 2 4 6 5 4 10 6 6 6 5 9 6 6 9 6 7 6 4 9 5 3 1 6 4 7 6 6 6 7 6 7 10 10 12 10 7 7 8 7 9 11 13 10 9 7 5
19 19 21 21 22 22 22 22 21 11 5 3 6 8 6 6 8 9 8 7 6 4 5 6 5 4 6 9 6 9 7 7 8 8 3 12 5 8 6 1 1 6 3 3 2 6 6 8 7 7 6 5 9 8 8 7 6 9 6 4 4 6 6 8 3 5 3 6 10 9 6 3 9 7 5 4 4 4 5 6 7 8 6 3 8 8 7 6
19 19 20 21 21 21 22 19 8 3 1 6 7 6 7 6 7 8 8 7 5 6 4 10 4 6 7 7 9 9 10 8 7 4 6 10 6 9 5 3 6 5 4 6 2 1 3 9 6 11 5 4 7 7 11 7 7 6 2 8 9 9 9 8 3 5 3 3 3 3 2 3 6 10 9 8 7 10 9 10 8 4 5 7 5 8 7 7
18 20 20 20 20 22 17 3 3 4 6 7 6 6 6 7 7 7 6 6 5 4 8 5 4 2 3 3 5 12 7 5 6 7 5 6 6 9 3 2 3 1 5 4 4 5 6 4 2 8 5 6 3 7 8 6 6 2 6 6 10 9 9 9 8 7 5 6 6 2 4 3 7 5 3 9 8 4 3 7 11 3 5 4 5 8 7 5
19 20 20 19 17 20 7 2 11 11 8 7 5 5 6 5 6 6 5 5 3 5 4 6 4 6 4 4 10 7 6 8 1 5 4 4 7 9 9 2 5 3 1 2 1 1 10 9 8 4 6 5 5 1 7 9 8 2 1 8 10 11 11 11 10 7 4 8 5 3 4 4 1 5 2 5 5 6 6 4 10 11 11 8 6 7 8 6
21 20 20 19 17 6 4 7 11 7 9 5 6 6 7 7 6 3 3 2 4 5 4 4 7 1 5 2 4 8 10 2 5 7 2 2 9 4 10 9 8 6 3 6 3 6 8 8 7 9 7 4 7 8 8 7 8 7 11 10 9 9 9 9 7 7 5 7 3 4 5 7 1 8 5 5 2 2 6 7 5 4 3 6 6 6 7 9
20 20 18 20 21 13 5 4 8 8 7 8 7 8 5 6 5 5 4 0 2 1 1 4 2 6 7 8 8 3 8 5 6 5 2 6 5 7 7 7 4 1 4 9 4 5 6 6 7 6 7 7 7 8 5 7 7 8 10 7 7 7 7 7 6 7 6 6 6 1 3 5 5 4 3 4 4 4 8 6 4 6 3 3 4 6 8 9
20 19 18 18 16 4 2 4 6 6 7 7 9 9 7 6 5 5 2 2 2 5 5 4 4 5 5 5 9 5 3 6 1 3 5 3 5 10 8 7 9 4 5 3 4 6 3 3 1 6 6 7 7 6 3 6 6 7 9 9 7 6 6 6 5 7 7 3 4 6 4 6 7 5 5 5 4 5 9 7 2 4 3 1 4 4 4 6
20 18 15 12 4 5 6 6 5 8 8 8 10 10 6 3 5 4 0 5 5 6 4 4 2 6 6 5 7 6 6 5 4 5 8 5 7 3 5 5 7 4 2 3 3 4 6 6 5 7 3 6 6 11 4 4 6 7 5 6 7 3 2 1 3 1 1 3 6 7 7 2 6 4 4 7 4 3 7 8 7 7 6 4 4 5 8 8
20 19 14 5 6 6 4 6 9 8 8 9 8 7 5 4 6 5 2 4 9 4 5 3 4 7 4 3 5 4 6 8 5 9 8 5 6 4 7 7 2 2 2 2 4 2 4 5 4 6 2 6 10 10 3 4 3 6 7 7 6 4 4 3 1 1 1 4 5 5 8 3 6 6 7 8 5 4 5 4 10 15 12 10 9 11 9 8
21 17 18 8 6 4 6 6 6 7 8 8 6 4 5 5 2 4 4 2 3 5 6 6 5 2 8 6 4 3 3 5 3 3 6 4 5 7 5 6 5 5 7 5 4 2 3 4 2 4 3 8 8 8 8 7 8 9 6 5 5 5 4 3 5 2 3 4 9 5 6 2 4 4 5 8 7 8 7 4 8 5 2 0 9 8 2 4
20 15 6 3 5 6 6 7 4 8 8 5 5 6 5 3 3 4 6 3 5 4 3 1 4 0 1 6 8 5 3 7 8 6 3 2 1 4 6 6 6 7 5 4 3 5 1 5 4 10 5 8 7 6 7 6 7 6 4 6 5 5 5 4 4 6 7 7 9 9 6 7 4 5 10 8 9 7 8 9 11 11 3 4 7 7 11 10
24 13 7 6 5 7 7 5 3 5 6 5 5 6 4 4 4 2 3 6 4 3 3 5 7 2 6 4 7 2 4 2 2 6 1 5 4 2 5 6 9 8 7 7 8 6 5 5 6 7 5 5 8 7 7 8 8 5 7 6 3 6 4 5 6 5 6 6 6 5 3 6 6 8 8 4 8 11 13 11 10 7 5 10 10 5 7 5
15 2 4 4 5 3 4 3 3 3 5 5 5 3 5 3 2 5 4 5 2 4 1 2 4 5 3 5 5 2 5 6 4 5 4 3 5 6 4 6 7 9 7 4 6 4 6 5 3 3 2 7 6 6 6 6 5 7 9 5 7 3 5 4 3 4 6 5 1 1 3 6 7 4 5 9 7 6 4 4 6 6 2 2 2 3 3 7
6 0 4 6 7 4 2 3 2 3 4 6 6 4 6 6 4 7 5 2 8 5 1 6 4 5 5 2 4 3 5 4 2 5 4 1 5 4 6 7 6 7 7 6 5 6 5 3 6 5 5 6 5 4 2 5 4 6 6 7 7 4 3 2 4 2 2 5 3 5 6 4 6 3 4 4 4 6 5 4 4 4 1 2 4 6 6 4
7 6 6 8 6 5 2 1 2 4 5 5 5 8 6 8 8 4 7 3 1 2 5 3 1 3 2 4 3 1 6 6 5 4 2 1 3 5 1 4 8 7 5 3 6 4 3 4 4 4 4 4 1 3 5 2 2 7 7 4 6 2 2 3 3 3 4 3 4 5 8 7 7 4 7 10 10 9 9 6 7 5 3 4 4 2 5 2
6 5 6 5 5 4 3 1 3 4 5 6 7 8 6 6 3 7 3 5 3 2 5 2 4 2 6 0 4 4 4 4 3 2 3 4 1 4 7 5 5 3 2 5 5 4 2 4 2 2 3 6 1 4 5 4 1 3 4 4 5 5 4 4 3 5 3 6 5 6 10 3 3 6 6 8 8 8 7 6 8 7 8 6 5 3 1 6
5 4 3 6 5 3 5 2 4 5 6 5 5 6 6 6 5 4 2 4 3 4 1 7 4 5 2 4 6 6 4 5 4 6 5 5 1 3 6 3 3 3 4 2 2 3 4 1 3 5 4 3 3 6 6 6 7 7 6 6 6 5 1 4 4 2 5 4 3 5 5 6 6 6 8 8 8 7 7 7 7 6 8 8 8 5 3 6
7 6 1 4 4 4 3 4 5 6 7 7 9 7 3 5 4 4 1 1 5 3 5 3 1 3 4 3 2 4 1 3 3 3 2 4 2 4 5 6 2 5 6 6 1 6 2 5 4 7 1 7 5 5 5 3 4 5 5 6 6 7 6 4 2 5 6 5 3 4 5 3 3 6 6 8 7 8 8 9 7 7 6 7 7 6 5 4
5 5 5 4 4 3 3 6 6 6 7 6 6 4 0 6 6 6 1 3 7 3 4 4 5 4 2 3 4 2 3 5 3 5 3 5 7 4 5 2 2 4 5 4 5 5 3 3 5 5 5 1 3 4 2 3 1 2 3 5 6 6 6 3 4 6 7 6 6 5 4 2 3 6 5 4 3 6 7 7 7 6 7 6 5 7 5 4
5 4 4 7 6 5 4 6 7 7 7 7 2 2 3 4 9 4 4 5 5 4 2 2 4 2 1 3 4 4 3 4 6 4 5 4 8 8 7 3 4 1 4 7 4 7 3 3 5 6 1 5 6 6 2 1 1 3 3 3 6 6 5 5 5 6 5 9 5 5 4 4 5 3 6 6 6 6 5 6 7 7 6 5 7 7 5 4
8 6 2 6 5 5 6 4 4 5 7 5 1 7 6 3 5 5 6 7 6 6 3 4 3 1 4 3 0 3 3 3 2 4 2 1 6 5 5 1 1 5 4 4 4 4 2 0 4 6 4 8 4 2 3 2 1 2 5 5 5 4 5 7 6 6 4 4 6 3 5 2 4 2 4 7 8 8 7 8 7 8 6 7 6 6 6 5
7 5 5 5 5 5 8 7 8 6 5 8 4 7 7 2 7 8 6 6 6 5 2 2 1 6 3 5 1 3 2 4 3 2 6 1 6 2 7 2 3 4 9 8 6 5 4 4 4 3 4 3 0 1 3 2 3 3 5 5 2 3 6 5 4 5 4 6 8 5 4 8 9 8 9 8 5 7 7 7 7 5 7 8 6 3 5 5
2 3 4 5 5 6 8 9 9 7 7 8 3 6 6 6 4 5 6 6 2 3 2 6 5 4 2 3 2 1 3 4 4 1 4 2 3 3 3 3 3 9 9 8 5 3 2 4 5 3 3 3 4 4 3 5 3 3 5 5 5 5 3 3 5 4 3 7 7 4 8 10 10 11 10 10 7 7 7 7 7 8 7 6 6 6 4 5
5 5 2 3 6 7 7 8 9 8 7 4 4 5 9 7 3 5 7 6 5 5 4 4 3 4 3 2 2 2 5 6 6 5 4 3 5 6 2 4 6 9 6 1 1 3 4 5 5 3 4 4 3 3 2 4 5 3 3 4 4 4 5 4 2 5 8 6 6 2 14 10 12 11 9 9 7 5 5 7 8 7 7 6 6 5 7 6
4 3 4 3 3 1 5 6 10 9 11 6 6 1 7 8 7 4 6 8 7 4 7 5 7 2 4 5 3 2 2 3 4 2 3 5 6 3 2 5 5 8 5 3 5 2 4 4 1 1 3 4 2 4 3 4 3 3 5 4 3 5 5 1 2 8 7 3 7 13 13 14 11 12 10 8 7 5 7 6 5 5 5 6 7 6 6 6
7 7 6 6 4 7 6 8 10 9 10 10 6 6 7 8 8 7 4 4 6 3 6 2 3 7 6 7 5 4 2 3 2 3 4 3 2 4 2 3 4 8 4 3 2 3 3 4 4 1 4 5 4 3 1 4 4 4 5 6 4 4 2 5 6 6 7 6 9 11 12 14 13 6 8 5 5 6 5 6 4 2 4 6 7 7 7 7
5 6 5 10 7 9 9 7 6 7 9 6 4 7 7 7 10 6 7 5 3 6 4 8 5 7 8 8 7 5 5 5 3 2 5 6 2 3 3 4 3 5 3 3 3 5 3 1 2 6 6 7 8 7 4 4 5 8 5 5 5 3 6 3 1 4 5 4 7 10 10 12 7 4 5 4 6 6 4 7 10 5 2 5 5 7 7 7
5 4 4 7 8 6 8 8 8 6 5 7 6 8 7 7 9 7 5 7 5 5 5 8 6 7 8 7 8 8 1 3 4 4 3 5 6 5 5 3 4 4 5 3 3 3 3 2 1 2 3 6 8 9 6 4 7 9 8 7 2 4 1 1 1 3 3 5 5 7 8 8 6 9 9 7 8 11 9 8 7 7 6 5 6 7 7 7
7 2 5 4 6 8 10 8 8 7 6 7 7 8 8 9 9 7 5 6 6 7 5 5 6 6 5 3 2 5 5 4 2 3 4 3 7 5 3 4 2 3 4 5 4 4 5 5 3 2 3 5 4 5 4 5 7 6 7 10 10 6 5 4 6 7 8 5 2 3 5 8 9 10 9 7 8 7 8 7 6 5 5 4 4 5 6 5
Wind_Direction
350 348 345 344 341 339 338 336 335 331 328 330 331 328 325 321 315 311 310 305 301 300 302 304 307 313 314 317 319 318 323 290 274 230 228 38 5 0 303 334 142 3 358 290 270 262 228 211 221 227 232 228 228 227 222 144 87 63 62 61 181 189 165 195 141 74 95 102 110 31 65 100 99 109 104 87 83 84 81 81 88 78 78 92 103 98 83 59
347 344 342 340 339 338 337 334 330 328 326 329 331 327 322 317 313 309 305 302 300 300 302 309 311 315 319 313 312 328 304 287 265 237 52 89 182 232 294 38 14 27 312 280 281 266 218 196 228 207 240 241 246 217 154 72 81 95 106 113 229 210 88 196 113 124 116 125 126 100 270 95 103 116 132 119 114 98 94 93 97 94 93 79 71 60 64 57
343 341 340 339 338 336 333 331 328 326 327 328 326 323 320 312 308 305 302 297 297 304 308 308 317 314 309 310 316 301 295 255 255 262 73 166 178 286 27 11 301 52 273 293 308 310 304 316 203 222 214 259 201 124 115 93 72 93 115 103 305 139 172 158 163 109 92 144 161 176 141 117 115 104 119 104 115 115 109 113 109 114 119 103 102 108 117 120
342 342 341 341 337 333 330 329 327 327 326 324 322 318 314 311 303 301 295 294 292 300 307 304 302 309 304 304 309 298 267 281 261 83 120 149 174 221 248 279 277 254 274 274 283 299 303 273 245 209 272 269 192 197 130 110 114 121 118 136 172 185 160 148 253 119 134 101 142 181 111 110 94 69 92 105 118 111 116 132 137 137 127 132 136 127 118 121
342 341 340 337 335 332 329 328 327 326 324 322 319 316 316 305 301 295 294 291 296 304 304 300 301 297 305 299 296 268 290 266 78 115 101 157 201 185 228 250 266 278 293 296 292 274 264 279 282 251 254 281 143 228 100 103 106 135 123 132 162 165 145 209 222 124 145 167 165 150 74 89 94 110 96 102 160 135 147 156 136 128 133 137 138 122 128 141
341 338 337 335 333 332 329 328 328 325 323 321 319 314 308 305 296 295 291 290 298 305 300 303 299 285 278 290 268 250 265 61 76 79 129 185 178 202 219 237 260 292 283 284 283 285 257 242 260 254 223 196 179 112 95 75 75 125 160 163 169 169 168 198 231 134 187 121 127 109 130 109 78 80 70 93 163 115 143 147 130 133 140 135 132 145 147 189
341 341 338 336 332 328 327 327 325 325 320 320 317 313 308 301 296 288 283 289 296 302 298 285 277 280 294 86 244 227 250 78 91 124 114 167 196 186 210 232 217 253 262 269 270 260 225 260 238 259 218 243 106 89 95 114 150 182 144 157 152 182 182 178 181 107 88 152 191 133 127 118 121 113 80 76 73 134 138 141 139 141 136 135 136 175 166 118
342 340 337 334 332 329 327 326 325 322 320 317 315 313 309 303 296 287 284 286 294 279 267 260 272 291 329 249 235 217 103 69 88 154 151 163 194 211 187 242 245 243 255 261 277 266 217 268 281 97 193 350 117 113 104 113 113 107 119 88 103 58 144 121 157 139 171 177 145 108 116 116 112 80 91 53 186 150 131 134 135 140 143 147 151 141 115 116
340 338 339 334 330 326 325 325 322 320 318 316 315 313 309 305 297 290 286 290 270 265 252 260 267 278 173 295 265 40 64 74 84 138 154 185 220 220 201 250 219 235 252 262 267 291 286 63 288 355 20 111 98 63 97 116 105 118 124 148 140 188 162 194 151 152 150 126 137 147 101 123 100 101 116 167 180 119 122 134 133 139 155 153 141 133 132 129
340 339 333 331 330 328 326 324 320 319 317 318 313 313 309 305 301 296 295 287 257 258 254 252 245 206 249 251 279 107 62 134 133 145 191 206 215 221 217 255 268 240 257 269 292 285 296 314 319 169 240 56 68 122 119 85 183 196 148 116 158 233 153 198 128 136 158 114 107 106 82 67 90 113 110 109 133 125 120 111 137 146 167 155 150 141 138 139
340 334 330 329 329 327 327 322 321 318 317 314 316 309 306 304 299 300 299 288 258 248 244 233 172 236 264 246 298 84 146 286 116 102 149 245 221 263 258 224 241 275 278 223 245 246 344 294 290 341 218 74 345 103 243 162 175 117 100 157 195 215 152 175 112 118 147 108 99 84 92 98 80 85 120 160 163 135 145 141 154 162 162 149 143 142 143 136
336 332 331 330 329 328 324 323 319 318 317 314 315 313 307 302 301 295 298 297 302 216 201 185 187 235 268 272 83 73 225 123 227 126 157 187 232 261 360 273 311 286 297 296 283 44 272 320 277 146 44 13 34 328 118 159 106 135 106 67 1 355 299 140 144 125 286 109 85 110 99 71 96 86 106 132 120 147 143 163 174 159 148 149 146 141 142 142
335 334 333 332 329 327 324 322 320 319 315 316 317 314 309 301 295 296 295 306 312 120 152 159 198 240 286 73 63 162 114 135 80 246 125 209 226 151 260 350 272 292 307 303 341 51 344 263 294 303 99 153 154 331 60 299 113 66 67 294 39 17 341 326 348 108 247 89 149 189 85 58 75 86 93 80 80 132 98 282 129 140 154 142 137 141 141 149
339 336 334 331 331 327 325 324 322 318 314 318 318 312 310 296 289 289 296 279 291 283 211 185 223 249 267 80 130 10 347 90 183 187 211 137 207 116 218 304 315 262 224 290 347 333 261 286 285 33 89 278 99 124 167 6 57 64 41 13 72 16 320 323 322 302 243 100 177 243 118 146 112 106 111 113 149 99 118 156 130 145 153 139 161 158 159 159
337 336 336 333 330 327 327 325 323 320 321 320 316 312 307 297 281 282 286 301 292 330 311 208 223 269 208 84 99 159 250 273 212 116 268 276 217 153 145 228 191 297 276 288 131 247 263 282 266 210 86 30 342 297 41 67 27 37 32 253 109 72 243 270 284 298 82 277 237 183 126 132 133 130 116 139 142 161 149 212 190 171 185 150 152 156 156 159
339 337 337 335 329 331 327 325 324 324 322 321 315 309 300 287 282 280 273 268 291 306 285 266 235 217 309 103 86 166 213 267 100 328 60 294 324 86 352 64 249 173 234 134 307 186 238 266 313 14 350 191 254 81 65 33 11 31 12 305 102 174 246 255 247 269 202 250 156 276 105 135 145 144 149 163 116 40 155 239 177 336 216 174 165 161 158 175
339 339 335 332 333 327 327 324 325 325 323 317 315 297 280 279 292 295 282 273 281 239 251 256 267 208 147 66 171 194 327 89 256 210 170 55 303 3 178 190 178 71 5 212 225 222 141 272 71 236 329 314 101 58 302 76 340 323 179 220 187 193 209 262 331 281 317 323 296 140 118 149 122 148 150 151 146 136 303 160 202 206 278 210 263 175 198 174
339 338 336 332 329 328 325 324 321 330 325 317 307 283 288 318 315 307 273 200 243 249 245 258 315 3 105 195 93 46 315 94 294 72 245 61 322 273 297 258 80 209 222 169 151 240 93 262 151 271 156 261 235 141 263 333 200 207 210 192 171 242 119 256 211 110 255 298 303 84 92 117 132 145 144 176 154 154 166 197 209 194 302 305 250 277 209 182
340 338 336 333 328 329 328 322 323 333 330 316 291 269 231 258 261 239 261 224 216 214 227 108 213 83 50 89 165 144 100 195 165 194 154 218 158 297 223 4 228 179 239 258 92 293 103 286 39 338 13 318 326 132 214 288 205 205 247 327 318 210 184 197 278 11 279 290 314 65 116 138 147 148 156 163 166 178 185 168 43 129 264 288 278 277 288 208
341 338 335 332 331 329 328 323 319 328 346 340 337 321 235 231 210 223 206 223 313 26 26 13 117 129 105 78 74 71 241 161 227 54 115 12 262 161 220 267 95 302 27 258 305 248 13 314 3 59 264 310 13 359 4 325 331 330 310 312 34 34 19 188 29 35 354 284 356 133 166 147 153 162 159 160 180 188 195 176 184 203 224 264 261 89 309 280
338 338 335 332 331 327 327 324 320 321 332 297 279 283 12 19 4 44 342 61 359 40 48 54 37 34 20 32 239 190 246 62 14 47 66 237 244 297 161 272 210 229 263 47 304 63 274 69 264 243 287 357 354 343 339 312 314 318 336 357 27 344 12 28 169 248 246 253 252 230 195 153 158 148 146 148 171 210 193 193 185 181 137 324 298 256 93 322
338 336 333 332 328 328 325 324 317 323 316 234 217 289 51 27 9 13 333 112 94 220 143 128 141 85 5 40 52 351 312 103 87 168 146 284 287 262 90 287 47 325 246 223 248 17 21 353 272 336 6 325 326 299 308 313 308 349 27 359 321 40 32 39 306 201 257 245 316 298 235 100 139 145 164 158 186 207 196 191 194 181 173 226 261 331 54 335
337 334 333 330 330 325 328 316 318 316 318 315 40 29 22 5 352 9 291 281 281 45 32 20 54 66 109 238 13 288 154 2 74 13 37 308 294 266 108 259 158 224 243 344 70 60 4 265 286 37 344 315 291 275 313 319 347 17 329 356 340 14 38 291 236 307 283 287 285 336 52 148 128 150 179 183 179 199 200 202 192 190 178 193 212 118 138 135
335 334 332 331 327 329 320 321 301 297 253 336 56 23 2 356 4 345 332 291 117 74 46 37 52 42 63 335 81 354 26 84 310 70 48 304 57 49 303 66 345 322 12 26 60 141 206 54 324 13 265 300 320 340 330 351 16 30 347 286 303 245 216 226 341 311 287 251 61 62 4 169 155 174 190 207 213 246 229 233 211 182 193 211 98 108 118 152
332 333 331 329 330 324 320 318 309 232 239 233 60 7 2 358 8 8 315 297 210 104 193 145 339 65 38 278 263 235 117 143 54 67 6 321 32 275 136 41 355 346 4 32 309 352 78 30 327 286 348 326 345 343 24 328 46 330 351 284 303 333 335 325 338 255 287 325 235 31 328 282 150 161 186 201 206 211 217 220 223 197 203 195 163 143 175 172
331 331 331 331 329 327 303 313 250 359 287 53 19 352 2 342 18 345 296 292 76 82 163 88 281 60 311 133 312 43 271 58 10 42 290 29 318 337 358 284 19 128 5 95 20 26 320 104 251 3 341 349 314 17 11 350 316 347 1 317 337 329 318 298 302 334 323 337 71 66 318 306 33 50 106 163 192 181 199 207 143 175 271 252 202 147 171 177
331 331 330 329 332 334 320 295 343 309 280 70 9 355 341 353 10 336 297 260 98 352 15 48 250 75 302 71 287 212 229 51 11 62 352 102 297 101 289 60 193 97 31 351 221 91 340 27 346 16 352 354 4 275 41 344 327 357 204 340 333 306 312 328 331 310 311 41 357 354 332 317 331 338 306 173 173 182 181 44 148 163 196 198 199 159 165 158
329 330 328 325 324 351 294 310 307 320 30 7 2 336 327 34 317 292 280 302 58 250 28 55 12 108 267 300 27 15 35 74 249 96 79 11 290 252 272 63 15 60 43 294 340 94 331 16 15 337 342 352 21 4 7 336 309 337 15 335 320 321 324 314 311 309 328 345 290 339 277 273 77 195 121 23 64 73 38 71 85 104 201 176 200 190 176 168
326 327 327 326 316 298 238 255 305 340 356 9 334 337 348 352 302 308 301 25 60 276 61 125 34 246 218 242 87 5 100 355 353 48 116 223 29 355 330 83 61 78 42 344 62 77 101 345 350 337 334 18 14 326 29 313 303 351 342 303 269 259 265 295 315 322 335 323 333 12 348 316 350 74 44 94 61 13 104 92 42 67 106 152 183 178 188 191
325 323 325 328 316 173 205 205 249 348 336 1 341 317 334 291 279 267 264 54 230 135 240 58 258 25 304 189 48 22 53 105 73 179 27 36 58 251 71 317 314 225 80 73 71 18 62 83 12 15 9 340 339 293 307 330 294 303 268 282 312 319 354 355 354 17 334 319 330 303 339 291 318 71 42 28 35 0 117 67 52 30 346 226 154 217 198 205
322 322 321 327 306 3 324 258 40 359 355 349 335 313 288 262 255 271 39 78 226 76 234 238 82 226 264 346 121 157 127 344 108 241 179 154 148 86 41 211 276 60 167 126 63 113 198 149 195 56 30 320 321 310 186 200 257 287 333 332 335 340 326 151 296 101 277 289 292 272 259 330 320 78 54 76 81 305 72 144 143 148 256 216 195 184 198 206
321 318 315 304 299 325 280 355 343 350 351 330 325 305 279 287 217 253 67 171 252 74 307 105 123 348 108 209 22 359 344 129 349 3 22 19 48 346 45 349 17 336 114 342 106 323 201 49 38 135 71 347 344 318 90 259 335 343 345 1 343 353 344 357 206 272 337 7 340 355 15 309 67 38 21 106 176 78 41 61 132 172 200 215 202 191 209 204
319 317 306 249 259 243 264 346 328 343 331 318 311 279 268 275 308 356 82 315 80 325 106 300 28 329 59 296 106 148 194 358 308 94 295 102 298 80 61 12 46 305 326 47 329 83 66 50 105 41 165 6 337 356 7 347 4 316 12 335 355 3 355 8 343 356 333 343 1 334 15 29 113 38 337 52 47 61 72 66 59 71 61 312 191 178 109 231
314 320 310 151 213 270 306 305 324 336 323 317 280 267 263 301 316 85 296 83 72 184 219 269 142 251 255 18 35 339 277 73 318 84 246 118 288 91 114 109 332 356 336 334 280 358 330 146 71 347 31 354 18 18 358 339 318 318 355 347 1 11 11 339 1 353 356 346 327 18 6 27 8 26 42 30 70 69 93 55 51 23 77 184 350 87 185 141
311 292 236 266 242 245 238 265 314 326 310 284 264 259 250 240 288 326 32 42 106 109 331 62 265 262 140 162 43 345 331 21 61 279 312 347 75 358 23 30 36 349 4 306 34 279 9 62 73 44 8 14 9 5 347 347 300 18 341 291 349 33 358 316 353 337 352 338 315 36 1 4 59 50 52 65 40 72 57 71 87 69 342 345 55 332 25 23
309 188 193 245 230 183 207 224 228 286 304 281 269 269 270 10 359 0 50 337 58 304 14 216 315 242 132 130 105 318 95 305 76 288 109 360 49 32 22 33 0 360 346 348 342 342 303 97 5 65 104 29 25 326 21 329 339 358 304 22 27 349 321 333 242 211 288 252 271 20 360 28 74 62 16 29 69 38 11 66 100 161 139 0 85 344 6 63
332 15 226 221 218 174 154 271 308 292 279 278 280 279 340 332 10 333 103 296 19 355 118 288 136 333 6 82 161 124 156 232 73 295 123 130 131 39 69 87 0 0 8 339 339 33 316 6 89 339 84 103 24 347 259 355 335 311 344 27 316 243 320 297 352 262 288 346 351 343 344 62 343 47 316 80 354 45 39 43 124 111 181 256 95 58 352 32
309 280 296 286 110 111 188 123 350 273 264 270 267 271 289 280 78 304 26 331 265 252 275 285 76 282 235 287 116 168 104 282 124 272 65 198 74 323 117 61 57 31 344 352 314 33 5 281 118 57 305 100 263 207 219 207 351 15 353 329 332 20 341 358 300 358 344 330 333 343 351 56 20 36 15 26 23 10 9 14 12 24 17 39 51 47 291 169
275 282 259 167 136 165 134 48 280 275 260 246 257 239 213 255 105 326 69 340 331 33 245 193 319 102 294 228 63 254 259 329 346 241 282 76 300 358 44 347 44 336 275 327 314 15 299 300 138 30 318 78 334 308 30 14 153 3 271 275 62 259 358 311 34 320 324 315 347 11 327 69 343 38 27 29 23 4 19 10 11 352 0 9 111 128 221 275
263 253 184 106 117 135 132 212 260 251 248 254 260 282 43 296 69 73 262 261 206 232 94 337 85 317 245 1 339 10 85 297 329 6 322 93 323 145 78 96 9 38 269 259 283 69 326 45 307 123 107 216 128 15 38 5 344 353 347 14 341 360 347 261 254 289 349 331 315 353 327 83 54 22 34 20 23 346 356 20 3 2 355 10 357 13 349 325
297 279 149 201 139 153 157 234 248 229 237 243 252 309 358 332 119 149 330 145 299 67 345 293 264 234 5 290 205 126 220 257 285 270 262 176 204 119 59 69 275 321 318 281 269 48 314 337 317 308 338 66 55 35 22 36 28 337 345 3 350 343 351 333 347 91 2 326 335 306 330 75 70 45 14 17 355 343 359 8 18 349 2 17 358 8 10 5
277 247 125 159 95 249 236 252 231 245 255 256 288 284 45 47 271 112 208 174 277 240 172 316 326 18 29 283 53 47 305 285 207 281 140 357 62 23 99 79 69 279 293 357 62 74 27 288 299 291 90 84 94 125 61 68 166 32 329 358 353 6 360 350 316 357 335 320 317 285 267 75 71 22 18 4 4 347 8 2 349 359 29 23 10 7 13 40
230 257 98 166 177 200 233 254 266 250 237 254 188 214 173 220 284 121 248 151 228 321 79 301 69 205 74 344 31 335 354 301 325 359 28 113 88 71 73 53 353 263 284 345 85 54 322 278 285 269 177 173 140 68 66 127 137 217 156 25 13 9 359 338 323 338 326 300 300 355 318 81 42 31 25 357 13 357 6 356 4 3 40 360 15 16 5 27
318 313 169 163 192 212 235 241 242 238 251 260 282 300 66 309 245 126 255 142 275 164 253 211 141 196 13 141 170 292 117 264 343 280 271 29 95 85 114 177 325 304 342 38 4 39 286 310 275 297 254 139 88 146 172 74 335 325 72 64 33 352 4 336 296 258 277 339 358 313 305 79 131 11 335 40 359 353 355 6 20 347 11 355 3 2 350 349
299 278 273 150 203 204 225 231 243 294 292 254 218 252 220 224 264 327 331 262 169 295 75 243 10 98 236 73 18 201 141 266 319 215 322 42 95 209 97 318 121 332 68 47 358 326 308 320 313 319 328 334 7 347 25 10 45 76 80 30 54 44 359 336 322 0 283 17 346 303 316 348 351 336 339 353 20 353 347 359 353 346 4 346 332 360 350 338
274 281 209 205 182 200 246 271 292 293 286 288 251 265 255 247 176 232 254 317 20 10 231 359 134 140 137 98 223 225 211 207 272 39 243 127 107 145 125 156 82 67 55 43 340 332 287 303 290 306 325 352 28 50 63 329 6 352 7 348 355 349 348 307 307 283 334 335 313 355 16 339 334 338 347 337 29 6 344 351 335 351 358 345 343 348 351 330
314 278 288 234 178 216 241 225 239 245 256 280 267 194 256 241 209 196 186 272 165 276 257 228 233 143 163 168 253 196 243 181 229 303 270 259 78 82 101 292 135 106 87 310 200 257 259 272 205 255 258 279 20 309 9 335 329 302 336 326 323 314 316 317 302 302 343 315 286 38 357 341 324 331 327 345 20 20 334 342 348 342 350 341 341 330 316 323
252 279 296 61 308 214 215 238 237 237 249 257 275 232 239 246 197 215 133 254 318 187 267 159 267 245 177 192 191 253 246 248 205 236 265 245 137 128 221 155 241 135 161 253 159 190 299 295 47 129 265 275 293 301 270 289 305 319 298 304 288 272 256 212 244 272 296 292 289 315 327 320 316 311 325 40 21 348 327 337 330 328 323 323 335 337 343 335
302 324 312 16 271 274 291 356 331 297 254 230 257 232 241 247 247 192 199 223 228 249 222 272 253 258 217 164 187 222 223 244 218 262 243 277 154 123 229 185 159 126 159 257 211 35 320 267 7 58 302 284 260 248 269 291 312 300 290 283 295 304 273 215 253 275 272 273 287 306 311 294 291 343 16 6 343 311 305 290 257 283 359 343 318 332 347 346
345 357 335 341 315 294 289 301 280 260 266 241 239 236 241 220 252 220 179 228 201 250 230 251 246 254 253 167 174 235 191 233 354 231 225 289 272 216 236 287 101 180 158 214 196 144 255 85 356 296 285 253 232 216 235 259 249 263 278 279 267 63 43 6 351 284 316 308 294 286 295 293 295 64 322 26 278 260 321 350 343 1 341 300 330 340 356 350
349 323 349 317 314 304 300 253 256 261 257 260 237 237 245 242 240 246 229 171 229 227 224 253 255 258 256 216 169 222 296 229 176 240 247 201 260 179 241 207 208 181 192 194 181 158 195 294 280 248 260 277 225 198 217 239 259 258 242 232 148 117 111 202 219 199 181 236 282 303 289 277 304 7 333 335 344 356 349 340 355 4 358 15 348 342 337 348
327 296 206 251 276 299 296 273 240 254 253 252 254 231 228 238 255 231 233 183 215 238 254 241 236 269 278 296 195 192 216 206 308 273 292 238 224 295 217 255 217 232 179 234 150 227 191 259 260 233 280 282 88 179 215 270 278 260 243 215 172 185 189 211 229 217 197 178 200 243 248 267 335 339 318 327 356 337 342 351 334 349 351 341 348 333 322 341